N5ZPR Weather Reports


Display with metric or nautical units.
time (UTC)temp
F
wind
direction
speed
MPH
gust
MPH
rain 1hr
in
rain 24hr
in
rain mn
in
humidity
%
barometer
mb
20260901050004 83 0 0.0 0.0 0.00 0.00 0.00 51 1012.3
20260901045003 83 0 0.0 0.0 0.00 0.00 0.00 50 1012.3
20260901044003 84 0 0.0 0.0 0.00 0.00 0.00 49 1012.3
20260901043004 84 0 0.0 0.0 0.00 0.00 0.00 49 1012.3
20260901042003 84 0 0.0 0.0 0.00 0.00 0.00 48 1012.4
20260901041004 84 0 0.0 0.0 0.00 0.00 0.00 47 1012.4
20260901040003 85 0 0.0 0.0 0.00 0.00 0.00 47 1012.4
20260901035004 85 0 0.0 0.0 0.00 0.00 0.00 46 1012.4
20260901034004 85 0 0.0 0.0 0.00 0.00 0.00 46 1012.2
20260901033004 86 0 0.0 0.0 0.00 0.00 0.00 45 1012.2
20260901032003 87 0 0.0 0.0 0.00 0.00 0.00 43 1012.2
20260901031004 87 0 0.0 0.0 0.00 0.00 0.00 42 1012.2
20260901030004 88 0 0.0 0.0 0.00 0.00 0.00 41 1012.0
20260901025004 89 0 0.0 0.0 0.00 0.00 0.00 40 1012.0
20260901024004 89 0 2.0 3.0 0.00 0.00 0.00 40 1011.7
20260901023003 89 182 0.0 0.0 0.00 0.00 0.00 39 1011.7
20260901022003 90 182 0.0 2.0 0.00 0.00 0.00 38 1011.7
20260901014004 93 181 0.0 3.0 0.00 0.00 0.00 35 1011.2
20260901013003 94 179 2.0 3.0 0.00 0.00 0.00 36 1011.2
20260901012003 95 176 0.0 3.0 0.00 0.00 0.00 34 1011.2
20260901011004 95 176 3.0 5.0 0.00 0.00 0.00 35 1011.1
20260901010003 96 152 0.0 3.0 0.00 0.00 0.00 33 1011.1
20260901004004 96 138 1.0 6.0 0.00 0.00 0.00 33 1011.1
20260901003003 97 202 2.0 5.0 0.00 0.00 0.00 34 1011.1
20260901002003 97 150 2.0 6.0 0.00 0.00 0.00 33 1011.0
20260901001003 97 117 1.0 5.0 0.00 0.00 0.00 33 1011.0
20260901000004 98 173 2.0 5.0 0.00 0.00 0.00 33 1011.0
20260831235003 98 153 2.0 5.0 0.00 0.00 0.00 33 1011.1
20260831234004 98 167 2.0 6.0 0.00 0.00 0.00 32 1011.1
20260831233003 98 100 2.0 7.0 0.00 0.00 0.00 33 1011.1
20260831232003 98 141 3.0 8.0 0.00 0.00 0.00 32 1011.1
20260831231003 99 114 5.0 7.0 0.00 0.00 0.00 32 1011.1
20260831230003 99 128 3.0 7.0 0.00 0.00 0.00 32 1011.2
20260831225003 99 122 2.0 7.0 0.00 0.00 0.00 32 1011.2
20260831224004 99 123 4.0 7.0 0.00 0.00 0.00 32 1011.2
20260831223004 101 161 2.0 8.0 0.00 0.00 0.00 31 1011.2
20260831222004 101 134 5.0 8.0 0.00 0.00 0.00 30 1011.2
20260831221003 102 146 3.0 8.0 0.00 0.00 0.00 29 1011.6
20260831220003 101 147 1.0 6.0 0.00 0.00 0.00 30 1011.6
20260831215004 101 153 2.0 6.0 0.00 0.00 0.00 31 1011.6
20260831214004 99 189 1.0 5.0 0.00 0.00 0.00 32 1011.8
20260831213003 101 136 3.0 8.0 0.00 0.00 0.00 31 1011.9
20260831212004 101 137 5.0 9.0 0.00 0.00 0.00 31 1011.9
20260831211004 102 143 4.0 10.0 0.00 0.00 0.00 30 1012.3
20260831205003 101 169 5.0 9.0 0.00 0.00 0.00 30 1012.3
20260831203003 98 156 3.0 8.0 0.00 0.00 0.00 32 1012.6
20260831202004 99 100 3.0 9.0 0.00 0.00 0.00 32 1013.7
20260831200003 98 136 4.0 8.0 0.00 0.00 0.00 35 1013.7
20260831195003 98 94 3.0 9.0 0.00 0.00 0.00 35 1013.7
20260831193004 100 121 3.0 12.0 0.00 0.00 0.00 34 1013.7
20260831192004 98 165 5.0 9.0 0.00 0.00 0.00 35 1013.7
20260831191003 99 122 3.0 7.0 0.00 0.00 0.00 34 1013.7
20260831190004 100 148 2.0 8.0 0.00 0.00 0.00 36 1013.7
20260831185003 98 192 5.0 10.0 0.00 0.00 0.00 35 1013.7
20260831184004 99 147 5.0 12.0 0.00 0.00 0.00 36 1013.9
20260831181003 99 176 4.0 9.0 0.00 0.00 0.00 36 1014.8
20260831180003 99 206 4.0 8.0 0.00 0.00 0.00 37 1014.8
20260831175004 97 73 2.0 9.0 0.00 0.00 0.00 38 1014.8
20260831174004 98 186 3.0 10.0 0.00 0.00 0.00 38 1014.8
20260831173003 97 176 5.0 7.0 0.00 0.00 0.00 38 1015.2
20260831171003 96 127 2.0 10.0 0.00 0.00 0.00 39 1015.2
20260831170004 96 96 2.0 6.0 0.00 0.00 0.00 40 1015.2
20260831163003 95 223 3.0 8.0 0.00 0.00 0.00 39 1015.2
20260831162003 94 233 3.0 8.0 0.00 0.00 0.00 41 1015.2
20260831161003 95 166 1.0 8.0 0.00 0.00 0.00 42 1015.1
20260831160003 93 169 3.0 7.0 0.00 0.00 0.00 44 1015.3
20260831155004 92 118 2.0 9.0 0.00 0.00 0.00 45 1015.2
20260831154004 92 141 2.0 8.0 0.00 0.00 0.00 46 1015.2
20260831153005 91 223 3.0 9.0 0.00 0.00 0.00 49 1015.0
20260831152003 90 229 2.0 6.0 0.00 0.00 0.00 52 1014.8
20260831150003 88 187 3.0 7.0 0.00 0.00 0.00 56 1014.8
20260831145003 87 201 2.0 6.0 0.00 0.00 0.00 59 1014.8
20260831141004 83 0 1.0 8.0 0.00 0.00 0.00 70 1014.9
20260831140003 82 0 2.0 7.0 0.00 0.00 0.00 70 1014.7
20260831135003 80 0 2.0 6.0 0.00 0.00 0.00 75 1014.7
20260831134003 80 0 2.0 5.0 0.00 0.00 0.00 76 1014.7
20260831133003 79 0 2.0 3.0 0.00 0.00 0.00 76 1014.4
20260831132003 79 0 2.0 5.0 0.00 0.00 0.00 76 1013.8
20260831131004 79 0 1.0 5.0 0.00 0.00 0.00 75 1013.8
20260831130003 78 0 1.0 5.0 0.00 0.00 0.00 78 1013.8
20260831125003 78 0 2.0 3.0 0.00 0.00 0.00 77 1013.8
20260831123003 78 0 1.0 5.0 0.00 0.00 0.00 75 1013.1
20260831122004 77 0 0.0 2.0 0.00 0.00 0.00 76 1013.1
20260831121004 77 0 0.0 2.0 0.00 0.00 0.00 76 1013.1
20260831120003 78 0 1.0 3.0 0.00 0.00 0.00 75 1013.1
20260831114004 79 0 1.0 3.0 0.00 0.00 0.00 72 1013.1
20260831113003 78 0 1.0 2.0 0.00 0.00 0.00 73 1012.9
20260831111003 80 0 1.0 5.0 0.00 0.00 0.00 70 1012.9
20260831105003 80 0 2.0 5.0 0.00 0.00 0.00 70 1012.9
20260831104004 81 0 1.0 3.0 0.00 0.00 0.00 68 1012.8
20260831103003 81 0 2.0 3.0 0.00 0.00 0.00 68 1012.8
20260831102003 81 0 0.0 2.0 0.00 0.00 0.00 67 1012.8
20260831100003 80 0 0.0 2.0 0.00 0.00 0.00 69 1012.8
20260831095004 80 0 0.0 2.0 0.00 0.00 0.00 68 1012.8
20260831094004 81 0 1.0 5.0 0.00 0.00 0.00 68 1012.8
20260831091003 81 0 1.0 7.0 0.00 0.00 0.00 66 1012.5
20260831090004 81 0 2.0 3.0 0.00 0.00 0.00 66 1012.4
20260831085004 81 0 2.0 3.0 0.00 0.00 0.00 65 1012.4
20260831084003 81 0 1.0 5.0 0.00 0.00 0.00 64 1012.4
20260831083004 81 0 1.0 5.0 0.00 0.00 0.00 63 1012.4
20260831082003 81 0 0.0 3.0 0.00 0.00 0.00 62 1012.3
20260831080003 82 0 1.0 5.0 0.00 0.00 0.00 60 1012.3
20260831075003 82 0 1.0 5.0 0.00 0.00 0.00 59 1012.3
20260831074003 82 0 2.0 5.0 0.00 0.00 0.00 58 1012.3
20260831073003 82 0 1.0 6.0 0.00 0.00 0.00 57 1012.3
20260831072004 82 0 2.0 6.0 0.00 0.00 0.00 56 1012.3
20260831071003 83 0 2.0 6.0 0.00 0.00 0.00 55 1012.3
20260831070003 83 0 1.0 5.0 0.00 0.00 0.00 54 1012.5
20260831065003 83 0 2.0 5.0 0.00 0.00 0.00 54 1012.4
20260831063004 83 0 1.0 5.0 0.00 0.00 0.00 54 1012.3
20260831061003 83 0 0.0 3.0 0.00 0.00 0.00 55 1012.3
20260831060004 83 0 0.0 2.0 0.00 0.00 0.00 55 1012.3
20260831055003 83 0 0.0 1.0 0.00 0.00 0.00 54 1012.3
20260831054004 83 0 0.0 2.0 0.00 0.00 0.00 54 1012.3
20260831053004 84 0 1.0 3.0 0.00 0.00 0.00 53 1012.3
20260831052004 84 0 0.0 2.0 0.00 0.00 0.00 53 1012.2
20260831051003 84 0 0.0 1.0 0.00 0.00 0.00 53 1011.9